TimeCST,TemperatureF,Dew PointF,Humidity,Sea Level PressureIn,VisibilityMPH,Wind Direction,Wind SpeedMPH,Gust SpeedMPH,PrecipitationIn,Events,Conditions,WindDirDegrees,DateUTC
12:51 AM,43.0,37.0,80,30.06,10.0,WSW,3.5,-,N/A,,Clear,250,2013-12-29 06:51:00
1:51 AM,41.0,36.0,82,30.04,10.0,West,5.8,-,N/A,,Clear,280,2013-12-29 07:51:00
2:51 AM,41.0,36.0,82,30.02,10.0,WNW,4.6,-,N/A,,Clear,300,2013-12-29 08:51:00
3:51 AM,41.0,36.0,82,30.02,10.0,Calm,Calm,-,N/A,,Clear,0,2013-12-29 09:51:00
4:51 AM,41.0,36.0,82,30.02,10.0,Calm,Calm,-,N/A,,Clear,0,2013-12-29 10:51:00
5:51 AM,41.0,37.0,86,30.02,10.0,Calm,Calm,-,N/A,,Clear,0,2013-12-29 11:51:00
6:51 AM,39.9,36.0,86,30.04,10.0,Calm,Calm,-,N/A,,Clear,0,2013-12-29 12:51:00
7:51 AM,43.0,39.0,86,30.06,9.0,Calm,Calm,-,N/A,,Clear,0,2013-12-29 13:51:00
8:51 AM,52.0,43.0,71,30.07,10.0,Calm,Calm,-,N/A,,Clear,0,2013-12-29 14:51:00
9:51 AM,60.1,41.0,49,30.10,10.0,Calm,Calm,-,N/A,,Mostly Cloudy,0,2013-12-29 15:51:00
10:51 AM,66.0,35.1,32,30.10,10.0,Variable,3.5,-,N/A,,Clear,0,2013-12-29 16:51:00
11:51 AM,69.1,42.1,38,30.07,10.0,West,3.5,-,N/A,,Clear,280,2013-12-29 17:51:00
12:51 PM,70.0,45.0,41,30.04,10.0,Calm,Calm,-,N/A,,Clear,0,2013-12-29 18:51:00
1:51 PM,72.0,46.0,40,30.01,10.0,Calm,Calm,-,N/A,,Clear,0,2013-12-29 19:51:00
2:51 PM,72.0,46.0,40,30.00,10.0,Variable,5.8,-,N/A,,Clear,0,2013-12-29 20:51:00
3:51 PM,72.0,46.0,40,30.01,10.0,Calm,Calm,-,N/A,,Clear,0,2013-12-29 21:51:00
4:51 PM,69.1,50.0,51,30.03,10.0,SE,4.6,-,N/A,,Mostly Cloudy,130,2013-12-29 22:51:00
5:51 PM,62.1,50.0,65,30.04,10.0,ESE,5.8,-,N/A,,Partly Cloudy,110,2013-12-29 23:51:00
6:51 PM,60.1,51.1,72,30.07,10.0,ESE,4.6,-,N/A,,Mostly Cloudy,110,2013-12-30 00:51:00
7:51 PM,61.0,52.0,72,30.10,10.0,NNW,6.9,-,N/A,,Overcast,340,2013-12-30 01:51:00
8:51 PM,61.0,48.9,64,30.14,10.0,NNE,10.4,-,N/A,,Clear,20,2013-12-30 02:51:00
9:51 PM,59.0,48.9,69,30.16,10.0,NNE,5.8,-,N/A,,Clear,20,2013-12-30 03:51:00
10:51 PM,52.0,43.0,71,30.18,10.0,North,17.3,21.9,N/A,,Partly Cloudy,350,2013-12-30 04:51:00
11:51 PM,48.0,39.0,71,30.20,10.0,North,15.0,-,N/A,,Overcast,360,2013-12-30 05:51:00